TIMESTAMP,CO2_1_1_1,H2O_1_1_1,TAU_1_1_1,TAU_SSITC_TEST_1_1_1,H_1_1_1,H_SSITC_TEST_1_1_1,LE_1_1_1,LE_SSITC_TEST_1_1_1,FC_1_1_1,FC_SSITC_TEST_1_1_1,WD_0_0_1,WS_0_0_1,WS_MAX_0_0_1,U_SIGMA_0_0_1,V_SIGMA_0_0_1,W_SIGMA_0_0_1,USTAR_0_0_1,MO_LENGTH_0_0_1,ZL_0_0_1,FETCH_MAX_0_0_1,FETCH_70_0_0_1,FETCH_80_0_0_1,FETCH_90_0_0_1,PA_0_0_1,RH_0_0_1,TA_0_0_1,VPD_0_0_1,T_SONIC_0_0_1,T_SONIC_SIGMA_0_0_1
[yyyymmddHHMMSS],[mmolCO2 mol-1],[mmolH2O mol-1],[kg m-1 s-2],[#],[W m-2],[#],[W m-2],[#],[umolCO2 m-2 s-1],[#],[Decimal degrees],[m s-1],[m s-1],[m s-1],[m s-1],[m s-1],[m s-1],[m],[#],[m],[m],[m],[m],[kPa],[%],[deg C],[hPa],[deg C],[deg C]
20220224003000,421.20152902341852,1.5546872948825645,2.8588420050089151E-002,0,-9.0232434674183857,0,-0.15923977243471721,1,3.4211305320161353E-002,0,314.04025253566942,2.6051951651004632,4.0950725348619743,0.45738815839807040,0.56244684651547705,0.18869903424011925,0.14924527058712353,31.007851937751838,0.61274802389222049,364.02010589191718,3835.0000000000000,7305.0000000000000,-9999.,95.354578969805800,74.441034482758624,-14.474827586206914,0.50913382851490585,-14.912057840890384,0.16459201218979852
20220224010000,421.49813342904423,1.5368282023079152,2.2375894354258314E-002,0,-7.3926283340480392,0,0.13402828183730470,2,5.1915247429573368E-002,1,328.90384084306572,2.0658338042046984,3.8259639422876934,0.32375309715377693,0.29370356346618204,0.18679672164647407,0.13189659054727121,26.129381805252056,0.72715076619918206,317.53855335085359,3239.0000000000000,6111.0000000000000,-9999.,95.384381770543897,76.495999999999995,-14.942333333333352,0.45052834748527770,-15.431879984057218,0.19734097811210266
20220224013000,421.75424711006775,1.5582017178701673,1.3499193367626229E-002,0,-5.6867339846304557,0,6.0215918307598884E-002,2,-7.5160650059406210E-003,2,327.10487117757992,1.9924363303452566,3.0073516241478213,0.29718834120944998,0.24614517984716627,0.14268066038014021,0.10234156199882997,15.868125276471002,1.1973689184426146,500.73332947407698,5117.0000000000000,9660.0000000000000,-9999.,95.385850304036467,81.013999999999996,-15.469333333333338,0.34841553788922169,-15.956830011155830,0.15495771138828307
20220224020000,421.74264763072421,1.5501663608700047,1.6422552843404964E-002,0,-2.8330119057606620,2,0.17511445090931924,2,-1.2733069325639520E-002,2,328.00050812222003,2.1837130232779440,3.5802529160850880,0.39302227269711976,0.24287638110371856,0.14241158095666687,0.11280025372274446,42.650975790723471,0.44547632610394988,394.15691389841516,4205.0000000000000,8038.0000000000000,-9999.,95.390760444736912,82.986666666666665,-15.821000000000026,0.30323699828513556,-16.286298469469671,0.17079212834841026
20220224023000,421.88838133486297,1.5186595217205530,1.3954757000232508E-002,1,-7.0664867132428189,1,-0.45734957280556704,1,0.10369041313925785,1,343.24692190602991,1.5152343085844182,2.8927265656813308,0.52257263441218249,0.32364484293296986,0.12191342590906212,0.10390780749504419,13.365097999447361,1.4216132198047211,303.25748831119455,2779.0000000000000,5085.0000000000000,-9999.,95.386702016276047,83.813333333333333,-16.187333333333356,0.27983951544675678,-16.675693117777428,0.19327655546062283
20220224030000,421.99965949050522,1.4954114782612788,3.3895617478325616E-003,1,-1.3810751417894689,1,-0.29518004039802875,1,4.2972724948405934E-003,1,17.867710620165070,1.7291986439982894,2.4566959867168765,0.33181032212169115,0.15832022198344284,5.2952636645131036E-002,5.1188626461644710E-002,8.1743505513150314,2.3243436748554189,1470.8452584027054,-9999.,-9999.,-9999.,95.362418886284729,84.476666666666674,-16.469666666666683,0.26212151049308263,-16.861969491746663,0.15591194823443288
20220224033000,421.88909455892826,1.4432357506306319,6.1106637937563210E-004,2,-7.9022485538372947E-002,2,0.12725195836698749,2,-1.3633790790600333E-002,1,35.045623942535485,1.8447469864251804,2.4478251757628562,0.23669494325479293,0.21226821428349546,4.6583999402493789E-002,2.1728995406445548E-002,10.924214110142053,1.7392555481277485,5076.9747654003477,-9999.,-9999.,-9999.,95.324194632812493,83.033333333333331,-16.692999999999984,0.28119070273966457,-17.048492482503264,0.16105494047083979
20220224040000,421.78015353526962,1.4284623315527303,1.7867037717958210E-003,1,-1.8130504513640830,1,4.7114205459684567E-002,1,2.0753347383160946E-002,2,27.287927913506024,1.8038605319281849,2.1528867764353370,0.13346725861328576,0.18301434644507122,4.0429982699473947E-002,3.7163190183483061E-002,2.3815934253571385,7.9778520538831277,3221.1831210103960,-9999.,-9999.,-9999.,95.298842960937506,81.879999999999995,-16.651999999999987,0.30133755420323499,-17.002086842430913,0.14347461664056238
20220224043000,421.80769795353058,1.4142271691970749,8.6613066714620569E-004,2,-0.30496148040806292,1,0.10334175243272707,1,-7.6532182293754941E-003,1,15.722039339140764,1.3352924838002578,2.0008972156297591,0.21781404780629532,0.10192197432902780,3.6196380732946370E-002,2.5874107505352135E-002,4.7780424414489024,3.9765239076106669,3449.5699420969618,-9999.,-9999.,-9999.,95.286961194661458,81.366666666666660,-16.697999999999979,0.30868331897544748,-16.987552760654012,0.16021944723288145
20220224050000,421.71009385580186,1.4283608696956096,5.3970907938174107E-004,1,0.23832987227475924,1,-3.7969915966283565E-003,1,2.6772203595605186E-003,1,16.038888851912844,1.3242433819876303,1.6137009885646714,9.5064376922301908E-002,9.7324002721185965E-002,3.3208003524272736E-002,2.0433526207660604E-002,-3.0108736940607437,-6.3104606604652478,376.52569230010573,1047.0000000000000,1399.0000000000000,2183.0000000000000,95.268820876179007,80.976666666666674,-16.524000000000001,0.31976574340055808,-16.814975828863965,7.3349087506240709E-002
20220224053000,421.49388349671835,1.4364345164279080,1.4329360407480448E-003,1,0.38284672520482538,2,0.11429152423286774,1,-2.5000513041269573E-002,1,35.259263212507477,1.4196595182793299,1.7607088104875286,0.13310105594011698,0.22516328087713314,4.0191142031854227E-002,3.3300744692107670E-002,-8.1119380112147379,-2.3422269713763271,381.18900331113269,1081.0000000000000,1452.0000000000000,2286.0000000000000,95.252245289496528,81.109999999999999,-16.478333333333353,0.31873891490169826,-16.749655293782553,0.12664325972000556
20220224060000,421.33912304378305,1.4387936463827777,1.5308246366804766E-002,1,2.4353385238822134E-002,2,2.6390137635234762E-002,2,2.2450819287456406E-002,1,50.284689639499277,1.3509521651630700,1.9029671581922247,0.13639344916542825,0.43858268875159701,4.9799822139147694E-002,0.10888176169952275,-4457.6869860280494,-4.2623001703692180E-003,203.41282693021887,1100.0000000000000,1741.0000000000000,3626.0000000000000,95.256935613932299,79.954999999999998,-16.286333333333346,0.34369406276491560,-16.619677129957381,0.10602573317813216
20220224063000,421.30523820757509,1.4358975238294103,5.9143757521899487E-003,1,2.3806650023208928,1,-7.6104293176384966E-002,1,-2.2163321829911278E-002,2,75.773115931057589,1.1389359038781501,1.6866715260804399,0.19451201608773921,0.18533693459790282,5.2305941090055770E-002,6.7670332605938938E-002,-10.949287951465235,-1.7352726573838455,152.66270829358933,448.00000000000000,606.00000000000000,967.00000000000000,95.283329878427850,79.722999999999999,-16.272333333333336,0.34807827669193669,-16.588439724259331,0.12959577795847441
20220224070000,421.31188852750989,1.4276191923756656,6.5804063726078773E-003,1,1.5098780382463337,2,7.8744805177107469E-002,1,2.7616891653398823E-003,1,79.951434432622136,0.96664107648961650,1.3910017461306430,0.15612967592692939,0.21898849830316788,4.7799482242828956E-002,7.1377919189537939E-002,-20.266853654549355,-0.93749135035250131,147.56115356056645,449.00000000000000,614.00000000000000,994.00000000000000,95.328713685418180,78.540000000000006,-16.156666666666638,0.37195586470625358,-16.512321630029192,9.5120954319402526E-002
20220224073000,421.30259568854376,1.4265988421829618,7.7330323296388786E-003,1,1.8601521138326660,2,-9.4576660493325249E-002,1,7.7558035005338211E-004,2,98.173353420439327,1.1596444514641686,1.7178606937484628,0.21614705884827423,0.25587555145193197,6.2358280848245393E-002,7.7342825839633131E-002,-20.936511232490101,-0.90750554325952137,169.30777878617513,513.00000000000000,701.00000000000000,1134.0000000000000,95.376796142021945,79.167666666666662,-16.254666666666651,0.35813861284148857,-16.664842363253570,0.11284081327059040
20220224080000,421.27414210620623,1.4181017672181380,1.7311228700845796E-003,1,0.40745459135031548,2,-0.26077399646015570,1,-1.9972456816215851E-003,2,121.03042375860835,1.3691493103672467,1.9919489183790202,0.22200249355195464,0.11707123646736779,7.1364279170168160E-002,3.6571966886252132E-002,-10.108561313205362,-1.8795948712483219,364.31444204518385,1042.0000000000000,1402.0000000000000,2213.0000000000000,95.417364146918416,80.043999999999997,-16.452999999999975,0.33743956669674047,-16.826569923824763,0.17759268597097663
20220224083000,421.41936428742031,1.4161061785404445,4.5318908932290977E-003,1,0.63270530257862956,1,-9.0562445629483748E-002,1,2.9562335690308601E-002,2,174.31400668757740,0.95787190689442081,1.4300274473021153,0.15652171907757750,0.37150016109988571,3.5404202215136585E-002,5.9209313290997212E-002,-27.627633761497052,-0.68771723861777634,203.98950770717099,626.00000000000000,858.00000000000000,1395.0000000000000,95.433049029296882,77.598666666666674,-16.096000000000004,0.39023903205396038,-16.631228558010491,8.4248074464453454E-002
20220224090000,421.80888245665085,1.3740861618772124,1.7821789710594591E-003,0,0.30330623747049057,2,8.3171552174783295E-002,2,-3.6551022128428458E-002,1,177.76546619658845,1.2014184739679037,1.6783011802286376,0.15186590257768204,0.22737343827885922,8.1929540208865226E-002,3.7061202129299094E-002,-14.133325553132252,-1.3443403626819583,357.39346300199293,1036.0000000000000,1399.0000000000000,2222.0000000000000,95.431989502170154,81.533666666666662,-17.047666666666657,0.29707637794376551,-17.450978359646257,0.41676850452390729
20220224093000,421.49884310871141,1.4104139024105447,1.9485695118968912E-003,1,-1.5478938575259069,1,-9.7172203341513885E-002,2,2.0563137449407284E-002,2,233.67501557716196,1.1730110117296049,1.7199629083901364,0.19770673355825921,0.20417498364069528,5.5767058733047555E-002,3.8796260603766911E-002,3.1760341819801816,5.9823033731185955,1220.4410642117468,9885.0000000000000,-9999.,-9999.,95.397009663411453,80.368666666666670,-16.569000000000017,0.32874628575877468,-17.111297866821246,8.6673635726050052E-002
20220224100000,421.68281692175378,1.3925078742879571,1.6000295835618993E-003,1,0.19387936780887349,2,-1.4551459866789869E-003,2,-2.5673613751081868E-002,1,213.67363256262780,1.0027680688627523,1.3366821568883902,8.8570862945515999E-002,0.19959479851221235,4.3913833229413397E-002,3.5140376552176750E-002,-18.839554883425357,-1.0085163963568906,346.68923196021376,1021.0000000000000,1383.0000000000000,2210.0000000000000,95.374840766927079,81.223333333333329,-16.850666666666655,0.30710412704136503,-17.386925409528942,5.0532530805922647E-002
20220224103000,421.82513835819759,1.3900141078699304,4.5760884864619919E-004,2,-0.69401478488331525,0,0.27688223113312316,1,-4.9222479239066419E-002,1,180.77230917629439,0.94514611656937264,1.4216985957934860,0.23239542277129591,0.17072754023185108,4.8030654497019987E-002,1.8789648403532536E-002,0.80440354051414920,23.619985545881367,2458.2454367170840,-9999.,-9999.,-9999.,95.345370097222229,82.166666666666671,-17.013333333333321,0.28772139326992374,-17.531388068305091,6.1954505549592274E-002
20220224110000,421.94305169807996,1.3470167424099133,1.5186782007134754E-003,1,0.40042976312066197,1,-0.83792537568901870,1,2.2238348248569471E-003,2,191.90096211759794,1.0055557888466584,1.4771395746886060,0.18631607903247208,0.41519953872175236,4.8336140125514682E-002,3.4236830536205159E-002,-8.4330701898486584,-2.2530347278351037,258.52633964487620,739.00000000000000,995.00000000000000,1571.0000000000000,95.329207517795140,79.171666666666667,-16.947333333333347,0.33790933342284829,-17.460621021694578,8.8455066517910019E-002
20220224113000,422.26804962102062,1.2107141574329487,5.0812797289306573E-003,1,-0.23139731393286406,2,0.61560195903447601,1,-0.12650609271170446,1,229.71325262813630,0.83854685056260236,1.2688017613759786,0.15506732574145668,0.36554691422180913,5.1668446621601707E-002,6.2629227774223584E-002,89.342516096714860,0.21266470690653219,207.19912469458214,1905.0000000000000,3489.0000000000000,9384.0000000000000,95.348522928168407,70.578333333333333,-16.846999999999980,0.48135772073090255,-17.409327690548309,6.4657331714960284E-002
20220224120000,422.07212162217115,1.2534693435491884,1.1187627645353521E-002,1,6.8416174868304180,1,-2.5827575983496063,1,-0.12251841625525213,1,158.88834522849999,1.7700424418394849,2.7161219883805132,0.35902527075299062,0.34882225536285977,0.14084413310526031,9.2831322487798740E-002,-9.8391575926457566,-1.9310596279300865,169.23246188366389,492.00000000000000,665.00000000000000,1058.0000000000000,95.331880826605911,76.817999999999998,-17.443999999999988,0.36070840581095837,-17.863452489640963,0.42966508950622434
20220224123000,421.94583249943565,1.2285772605688055,1.5249425742984334E-002,1,-18.517623677480547,1,0.18913606483566173,1,-5.0920397807441412E-002,1,161.12229370478082,2.0565238372617034,3.4172290427588274,0.30578187844989285,0.28087486433460374,0.25164926419300587,0.10831188684736920,5.7747223360232507,3.2902014840568605,494.14303483664838,4075.0000000000000,7239.0000000000000,-9999.,95.349394891336047,77.078666666666663,-17.719666666666683,0.34845169128401327,-18.129604032295617,0.58893880406155319
20220224130000,421.79749624883402,1.2684152883808897,1.2482378280307332E-002,1,-4.7028520817752071,2,6.5079568545322575,1,0.14642507235042898,0,152.14087390397674,1.7676443339643160,2.8875016384808743,0.28466442199478209,0.28419607532166163,0.18266201255336373,9.8038957264832194E-002,16.859301128267514,1.1269743541233295,434.55330625484339,4388.0000000000000,8255.0000000000000,-9999.,95.322940906684039,78.479666666666660,-17.558333333333337,0.33164024262153846,-17.863723591274692,0.43733953841637296
20220224133000,421.75645183554269,1.1850562795569077,2.5904044898930507E-003,2,-2.4859940364606232,0,2.3460193235190250,0,-1.7508923964778496E-002,0,133.91503838222951,1.2120287038885189,2.2346496934460229,0.43412567880352737,8.1464670543318213E-002,8.1256212864883617E-002,4.4716357776758475E-002,3.0255055073941213,6.2799422951190618,946.75731593922592,7379.0000000000000,-9999.,-9999.,95.291779274739582,69.970666666666673,-17.006333333333316,0.48477539651775503,-17.541826988220237,0.25355637535277958
20220224140000,421.47138386675567,1.0482714902878223,7.1783589450451222E-003,1,3.6087314181663497,1,1.5095265461474517E-002,1,-5.1902059104204520E-002,1,297.55147722660763,0.32984927506297668,1.1171058494002846,0.38520557982337944,0.15137080341305156,4.0287023253605232E-002,7.4565745978975265E-002,-9.6658091627383147,-1.9656916125806603,24.380787663856481,78.000000000000000,109.00000000000000,180.00000000000000,95.317386220486114,57.128000000000000,-16.044666666666672,0.75004462375760528,-16.723791309780495,0.11933693093357250
20220224143000,421.69216162333873,1.2142743329276018,4.1388520397600839E-002,1,50.171290143341778,1,32.548531258701260,1,0.69437264229756746,1,310.39017336700442,0.62614640364870267,1.2579268944397004,0.28362412464194847,0.25997545565880698,0.14872387370888213,0.17920788127651241,-9.6533760212302617,-1.9682233405405636,16.744094720271079,55.000000000000000,77.000000000000000,129.00000000000000,95.340905859526927,63.445333333333330,-15.534666666666681,0.66719950112970494,-16.219250354490327,0.40947426256542091
20220224150000,421.98594725897834,1.3929907285186716,3.9584062299617133E-002,1,34.591789308172928,1,10.358457975501089,1,-0.25287425539414021,2,338.66610196903389,0.99705347041355230,2.3455922243267593,0.30471797877943224,0.23475762272101136,0.22491612837857411,0.17547131120414775,-13.144369693245537,-1.4454858196634168,39.326725304954763,125.00000000000000,172.00000000000000,284.00000000000000,95.346455224457401,69.118666666666670,-14.908999999999992,0.59356727360958839,-15.614252726774112,0.33047452844777014
20220224153000,421.85438505020090,1.3577246571498747,7.4318997781214258E-002,1,67.979754609595190,0,12.624195785607141,0,3.3714268060376140E-002,2,351.77697278938888,1.0781967221582491,2.6635185324119659,0.38848399541006318,0.30999218469672957,0.33271499048419662,0.24065568678057142,-17.249556604124358,-1.1014775878620040,96.630429075911593,176.67124304543719,211.43035546030504,264.68571579761903,95.308408968315973,65.286333333333332,-14.532333333333327,0.68823636313684378,-15.081171468946707,0.44634478836871555
20220224160000,421.47802741836688,1.3844381361829883,0.15836730917855060,1,176.12894804648553,0,26.076324339286202,0,1.0280360622929616,0,14.149261869552731,0.91029181373476409,2.8333344292756948,0.47184685367886248,0.39386208289199615,0.44752021047571605,0.35201045869441044,-20.832824014913879,-0.91202229646821820,103.33542521449117,188.93011443559857,226.10109355488777,283.05173899892361,95.289632790147579,61.367666666666665,-13.540000000000020,0.83070536538913820,-14.308118175930474,0.50373603493124064
20220224163000,420.98097552531146,1.3567577068209438,0.14500168019576645,1,123.65456733410693,0,8.2204589644053190,1,1.9356156563718747,1,60.569323536512954,0.66385675036553093,3.2122419608138237,0.62487898721171309,0.76214210958679807,0.59150096672079244,0.33736988613944641,-26.121672372481612,-0.72736537420230118,79.905299647256143,146.09237224341385,174.83525706286093,218.87299513636881,95.283402484236035,56.262666666666668,-12.719666666666683,1.0052359727355986,-13.707186240789383,0.40768769301242430
20220224170000,420.62648671903059,1.3866886330747052,0.12112506386214295,1,221.93622675421611,1,21.686991872049980,1,-1.4597877651428439,2,76.645806070933929,1.1982867819555441,3.8897189168446036,0.87818607115849534,0.62748456046294798,0.51867946317341695,0.30856913671550418,-11.138070910636799,-1.7058609298182059,82.645202104498892,151.10178778232293,180.83024804035423,226.37801244868186,95.309613174913196,55.478000000000002,-12.271999999999991,1.0609282428202891,-13.306761073642235,0.46990175060137829
20220224173000,420.41389231599356,1.4362929049420774,6.9468790081521015E-002,1,134.95008167832307,0,10.808701482397174,0,0.15841122158657145,2,48.137435428933372,1.5102219766677694,3.8345836891895257,0.59016085071046143,0.71634160299039917,0.47802747431088832,0.23386410701646793,-7.9742447511320220,-2.3826707848793784,70.674618223145757,129.21574262529555,154.63824176132161,193.58872864386390,95.305573384982637,55.709333333333333,-11.887333333333345,1.0885842561757770,-12.924801322089252,0.39741799457966948
20220224180000,420.12029423887003,1.4890332287405008,0.21323604116859673,1,236.04645344833582,0,32.271657402930458,1,-1.0583222385418711,1,50.274269833443782,1.0834198809363962,3.9988058867187379,0.56723953421865525,0.82103251270932798,0.58751201363021488,0.41042501309810298,-24.638649864117323,-0.77114615065295389,93.978509988500164,171.82268916743632,205.62787480627742,257.42169856617903,95.285567522569451,54.052333333333337,-11.062000000000012,1.2064157798400412,-12.042897048950238,0.50758579350162114
20220224183000,420.04086278132826,1.4291169682401255,0.16887044009150909,1,218.42351533090024,0,25.300641767044784,0,-0.72420330979543657,1,68.830012912020976,1.0166017655535737,3.3716016194798648,0.60850022463391518,0.70629742846925703,0.59717762370629413,0.36553738976105216,-18.805824462154259,-1.0103252871596515,84.550761578614768,154.58575824802983,184.99967086933250,231.59763506885116,95.250659011924782,50.496000000000002,-10.727666666666664,1.3348595070864879,-11.813647815927197,0.42585945539342068
20220224190000,419.90863223919757,1.4086905399028224,0.15563071171045528,1,180.61542688348626,0,19.665175200311083,0,-0.72367187676963762,1,68.427157567217066,0.85981053323073175,3.2177707182432784,0.64721113030819422,0.60046475337366656,0.51546173208007073,0.35118434671238208,-20.152983118048908,-0.94278846405541306,92.114049849165937,168.41386139367080,201.54837858784165,252.31465339132916,95.156489558810748,49.158000000000001,-10.583333333333314,1.3867523497378660,-11.444346147325291,0.40455442524440149
20220224193000,419.73258117792898,1.3854078407609600,8.6347590760765799E-002,1,162.49556164981030,0,21.043838261671496,1,-8.3134893475924523E-002,2,10.986048495901372,0.70433629485114135,2.3955178922093801,0.41777819634176738,0.47625302844111084,0.44581544407177898,0.26189374226025680,-9.2839457679111508,-2.0465436221817699,81.814618470603207,149.58321599849830,179.01290546376154,224.10291519650303,95.067634651692714,46.878000000000000,-10.206333333333362,1.4929049285845557,-11.093866537305985,0.36207974962490835
20220224200000,419.69654831378688,1.3437034396698864,3.2367337827109932E-002,1,83.794595184325388,0,6.3457963524141370,1,-0.37448355360852870,0,41.415737797730969,0.60884391270820604,2.9668554239784948,0.58861651626342693,0.61017826299129074,0.40871060913458346,0.16044586721787416,-4.1375652590643934,-4.5920725862572551,14.445737830746262,46.000000000000000,63.000000000000000,104.00000000000000,94.999844412436801,44.899666666666668,-10.056666666666672,1.5669455721325907,-10.932782017353361,0.27200050774531837
20220224203000,419.85849342529150,1.4412730275162229,5.2840442961423935E-002,1,67.576814823278241,0,11.687649239797240,0,0.34033576324243164,1,1.1653011790706103,1.0878621511745636,3.1313857326938854,0.42957478223023482,0.63024362514573051,0.40675395601391978,0.20507591844762627,-10.710067345290584,-1.7740317952673428,72.397105590154922,132.36499889135752,158.40709718052432,198.30688840005223,94.958165809027761,47.894666666666666,-9.9923333333333630,1.4893270560771819,-10.695067511664490,0.23305579158225409
20220224210000,419.75027967332380,1.4166706259802211,0.13856501966565352,1,45.357349484078256,0,10.750988132482869,0,0.24515008613313230,0,33.021032321587739,1.2243794733582876,3.8939379797021174,0.63611295211343555,0.57120013056648167,0.38733184072000154,0.33202366911622117,-67.706387800513767,-0.28062344805604628,110.69387113235540,202.38370042941023,242.20159989567250,303.20766238200093,94.935650826822922,47.695333333333330,-10.160333333333313,1.4752962917389290,-10.825985325283455,0.16334454129663686
20220224213000,420.17015855878321,1.4709505544687103,0.19441256243024871,1,31.883309946824539,0,15.440516692286328,1,0.43908111670332423,2,11.014726704620159,1.5493376080265049,4.2917467059996373,0.71488349890856828,0.76999920637555441,0.42354090867119432,0.39316869497321255,-159.97217243287457,-0.11877065686516529,117.97819661646199,215.70177063081306,258.13992844416020,323.16055841383928,94.965503338541666,49.832000000000001,-10.235000000000014,1.4066916123959550,-10.891867325676799,0.11984553667986649
20220224220000,420.28672843975448,1.5445204386513738,0.12933461308313546,0,20.785835055001773,0,10.021471559134339,0,0.29638485046305130,0,8.1952376116987580E-002,1.3685525693523664,4.1046450784788791,0.68933947216884384,0.62475442964297823,0.38959423650751812,0.32058159701667949,-133.05121206891181,-0.14280215643702099,107.13114620062984,195.86990298137809,234.40624799745973,293.44880683554578,94.994562886284726,52.719000000000001,-10.326000000000022,1.3162196716257351,-10.953231752183683,9.7278138085728869E-002
20220224223000,420.65186855760737,1.5764022362676184,8.7398982007825449E-002,0,16.499923509153405,1,2.0107871067290208,1,-9.6703184757941762E-002,2,352.67153279754751,1.7901867211396514,4.4270123494328546,0.70463121946485774,0.54849890318504635,0.33139957911158147,0.26337098099145456,-92.951755432989870,-0.20440711325454577,104.19039269773737,190.49326767286581,227.97178874498920,285.39362739216392,95.014161421440974,54.989333333333335,-10.597333333333324,1.2263342343266397,-11.211183608160979,0.15031676926582158